Location: Auckland
(36.8670°S, 174.7670°E)
Time: 02:16:44
(UTC+13:00)

Lacrosse 5 - Pass Details

Date: 24 January 2019
Orbit: 715 x 724 km, 57.0° (Epoch: 08 October)

Event Time Altitude Azimuth Distance (km) Brightness Sun altitude
Rises 21:09:27 0° 218° (SW) 3,161 6.7 -6.4°
Reaches altitude 10° 21:11:55 10° 212° (SSW) 2,233 5.6 -6.8°
Maximum altitude 21:16:57 52° 136° (SE) 899 2.3 -7.7°
Enters shadow 21:21:49 11° 59° (ENE) 2,168 3.6 -8.5°
